TimeCST,TemperatureF,Dew PointF,Humidity,Sea Level PressureIn,VisibilityMPH,Wind Direction,Wind SpeedMPH,Gust SpeedMPH,PrecipitationIn,Events,Conditions,WindDirDegrees,DateUTC
12:55 AM,40.1,34.7,81,29.56,10.0,WSW,5.8,-,N/A,,Partly Cloudy,240,2011-11-14 06:55:00
1:55 AM,41.7,35.8,79,29.57,10.0,SW,6.9,-,N/A,,Clear,220,2011-11-14 07:55:00
2:55 AM,39.4,34.5,83,29.55,10.0,WSW,5.8,-,N/A,,Clear,240,2011-11-14 08:55:00
3:55 AM,30.9,30.7,99,29.55,10.0,SSE,3.5,-,N/A,,Clear,150,2011-11-14 09:55:00
4:55 AM,38.7,34.2,84,29.54,10.0,South,6.9,-,N/A,,Clear,180,2011-11-14 10:55:00
5:55 AM,35.1,33.4,94,29.54,10.0,ESE,3.5,-,N/A,,Clear,120,2011-11-14 11:55:00
6:55 AM,37.4,33.8,87,29.54,10.0,Calm,Calm,-,N/A,,Mostly Cloudy,0,2011-11-14 12:55:00
7:55 AM,37.4,35.6,93,29.56,10.0,Calm,Calm,-,N/A,,Overcast,0,2011-11-14 13:55:00
8:55 AM,42.8,35.6,76,29.55,10.0,South,10.4,-,N/A,,Overcast,180,2011-11-14 14:55:00
9:55 AM,48.2,32.0,54,29.55,10.0,SSW,18.4,23.0,N/A,,Overcast,200,2011-11-14 15:55:00
10:55 AM,48.2,35.6,62,29.55,10.0,SSW,13.8,23.0,N/A,,Overcast,200,2011-11-14 16:55:00
11:55 AM,53.6,39.2,58,29.50,10.0,South,15.0,25.3,N/A,,Scattered Clouds,180,2011-11-14 17:55:00
12:55 PM,54.1,39.0,57,29.47,10.0,South,16.1,24.2,N/A,,Clear,170,2011-11-14 18:55:00
1:55 PM,55.4,39.2,54,29.48,10.0,SW,10.4,25.3,N/A,,Scattered Clouds,220,2011-11-14 19:55:00
2:55 PM,55.4,39.2,54,29.48,10.0,WSW,16.1,25.3,N/A,,Partly Cloudy,240,2011-11-14 20:55:00
3:55 PM,53.6,39.2,58,29.49,10.0,SW,8.1,-,N/A,,Partly Cloudy,220,2011-11-14 21:55:00
4:55 PM,51.8,37.4,58,29.50,10.0,SW,10.4,-,N/A,,Partly Cloudy,220,2011-11-14 22:55:00
5:55 PM,48.2,33.8,58,29.55,10.0,West,10.4,-,N/A,,Partly Cloudy,260,2011-11-14 23:55:00
6:55 PM,44.6,26.6,49,29.60,10.0,West,10.4,-,N/A,,Partly Cloudy,270,2011-11-15 00:55:00
7:55 PM,42.8,26.6,53,29.62,10.0,West,10.4,-,N/A,,Clear,270,2011-11-15 01:55:00
8:55 PM,41.0,24.8,53,29.64,10.0,WSW,4.6,-,N/A,,Clear,240,2011-11-15 02:55:00
9:55 PM,35.6,24.8,65,29.66,10.0,West,5.8,-,N/A,,Clear,270,2011-11-15 03:55:00
10:55 PM,30.2,24.8,80,29.67,10.0,Calm,Calm,-,N/A,,Clear,0,2011-11-15 04:55:00
11:55 PM,28.2,25.2,88,29.68,10.0,Calm,Calm,-,N/A,,Clear,0,2011-11-15 05:55:00